RH
100 100 98 98 87 100 100 77 44 32 34 41 43 49 47 69 71 66 63 63 67 73 66 69 66 70 66 67 59 25 14 13 11 10 8 7 7 7 7 7 7 7 7 7
76 100 100 100 84 100 100 91 75 42 30 44 32 49 44 55 61 58 57 59 57 62 66 68 68 64 65 67 67 53 35 21 12 10 9 8 8 7 6 6 6 6 6 6
71 100 100 100 96 92 100 99 82 71 35 34 33 36 49 48 58 52 51 44 40 39 50 55 58 58 59 58 56 57 54 53 50 48 45 40 36 30 25 22 20 20 23 27
93 100 100 100 100 92 100 100 88 71 57 34 36 35 28 31 45 51 39 33 34 31 33 40 44 46 45 42 43 41 35 31 32 32 32 33 34 33 33 33 32 31 31 31
89 82 100 100 100 93 100 100 86 94 78 52 31 32 44 28 46 55 41 29 27 30 36 36 36 38 37 35 34 32 26 26 27 28 27 28 30 33 32 30 30 30 30 29
92 100 100 100 100 100 100 100 82 100 89 61 46 33 33 35 41 42 46 44 37 32 38 41 41 39 34 36 37 34 30 25 27 30 31 32 29 34 33 33 38 32 32 33
86 72 83 100 100 100 93 94 84 76 80 75 67 50 42 35 35 42 51 46 44 44 45 41 42 48 46 46 46 47 43 41 38 38 38 42 43 43 37 33 28 28 31 35
76 71 73 87 100 100 100 99 70 72 88 100 81 68 48 48 43 46 44 45 38 49 47 42 50 48 52 56 60 64 61 56 49 47 52 56 58 62 70 66 60 62 59 58
71 92 100 100 100 100 92 83 91 92 96 100 96 88 75 55 53 55 54 47 43 43 51 54 50 46 50 55 60 67 69 68 68 66 61 63 63 67 74 69 74 80 86 85
90 100 99 100 97 100 100 100 94 83 96 100 100 100 100 84 64 69 68 59 49 54 50 53 63 61 66 73 85 90 88 88 88 92 91 88 90 96 97 97 99 100 100 100
94 68 93 100 70 93 96 98 84 78 88 99 100 100 100 100 88 80 82 77 63 57 65 62 62 64 64 72 79 88 92 95 98 100 100 100 100 100 100 100 100 95 86 80
100 100 75 63 86 99 100 98 100 100 100 100 100 100 100 100 100 100 89 94 95 79 71 81 80 77 73 89 93 100 100 100 100 100 100 89 76 74 69 63 56 54 51 51
100 98 95 81 70 68 75 77 79 78 74 71 85 100 100 100 100 100 100 99 89 87 92 86 83 93 100 98 99 94 93 95 81 68 64 60 58 56 57 54 52 50 46 53
100 100 94 82 69 80 71 80 77 64 48 60 80 100 100 100 100 100 100 100 90 81 76 77 91 100 100 98 95 98 99 88 71 58 52 51 59 58 45 47 56 60 69 76
100 100 89 91 100 97 77 100 100 100 80 67 69 96 100 100 100 100 100 92 88 86 83 83 89 92 99 96 96 93 89 85 81 76 70 71 70 42 38 39 48 60 64 69
100 100 99 96 100 100 84 77 100 81 64 58 74 66 89 100 100 100 100 100 100 94 90 89 86 83 88 99 99 89 79 82 77 71 70 60 60 54 51 52 58 66 74 76
100 96 100 89 100 100 97 67 53 71 76 70 58 65 68 79 77 97 100 100 100 100 100 100 100 100 100 100 100 100 97 97 100 100 77 69 65 55 54 59 67 68 73 75
100 100 100 100 100 100 89 99 92 66 67 62 60 72 61 52 56 65 58 62 92 100 100 100 100 100 100 100 100 100 100 100 100 90 75 76 75 75 62 59 66 74 80 90
100 100 100 100 100 100 100 100 99 88 76 72 62 63 61 59 57 51 59 72 91 100 97 88 100 100 100 100 100 100 100 95 83 75 77 83 86 90 84 72 78 84 77 77
100 100 100 100 100 100 95 100 100 100 78 80 76 62 60 66 58 56 68 84 91 92 100 100 100 88 96 100 97 100 96 85 85 92 92 94 90 71 66 77 77 68 69 82
70 100 100 100 100 100 100 100 100 100 100 100 100 100 100 100 93 89 91 96 96 100 100 100 100 100 100 100 98 95 87 94 94 95 81 75 82 84 85 79 72 65 69 62
29 70 100 100 100 100 100 100 100 100 100 100 100 100 100 100 100 100 100 100 100 100 97 100 100 100 100 100 100 100 98 96 91 85 82 76 82 96 93 76 68 68 70 91
26 27 71 100 100 100 100 100 100 100 100 100 100 100 100 100 100 100 100 100 100 100 99 100 100 100 100 98 97 100 100 100 82 65 69 70 78 77 86 76 66 74 91 99
20 24 25 54 96 100 100 100 100 100 100 100 100 100 100 100 100 100 100 100 100 100 96 95 89 90 94 98 98 88 80 76 89 99 90 82 100 99 90 88 87 88 88 95
19 24 30 32 60 92 100 100 100 100 100 100 100 100 100 100 100 100 100 100 100 100 100 100 100 100 100 100 100 99 100 100 100 99 100 97 92 94 99 93 87 95 91 92
19 25 30 46 61 74 100 100 100 100 100 100 100 100 100 100 100 100 100 100 100 100 100 100 100 100 100 100 100 100 100 100 100 93 97 100 100 99 99 94 97 96 96 97
Wind_Speed
68 75 65 61 61 60 58 57 50 49 45 41 39 35 35 29 27 23 21 19 17 15 13 10 9 9 8 7 8 8 8 8 9 10 10 11 12 12 13 13 14 15 17 20
75 56 71 73 69 65 64 59 55 50 51 46 42 40 37 35 31 27 25 23 21 19 17 15 13 11 8 8 9 9 8 8 9 10 9 11 13 15 16 17 18 20 21 23
78 68 79 78 72 70 65 63 59 57 55 49 45 43 40 39 36 31 28 26 23 22 20 19 17 15 12 10 9 9 8 8 8 9 9 10 12 14 16 16 18 20 22 24
86 78 79 80 76 73 71 71 65 59 58 52 51 49 44 41 41 35 32 29 26 24 21 19 18 16 14 13 12 10 10 9 9 9 9 10 12 14 14 16 16 17 19 21
90 84 80 76 78 76 75 77 66 64 63 56 52 49 48 43 42 39 38 32 29 29 27 25 22 21 19 19 17 16 15 15 14 14 14 15 16 16 17 18 21 21 21 23
102 94 88 84 84 82 85 81 68 69 66 56 57 53 50 49 49 45 44 40 37 34 33 32 31 29 26 25 24 22 21 19 19 20 22 23 23 24 24 25 26 26 29 31
103 97 92 88 86 89 82 79 72 67 62 53 60 54 57 54 51 48 49 46 43 42 41 40 39 37 36 35 33 32 30 29 29 28 28 30 29 30 31 32 33 34 36 38
106 101 95 89 86 81 78 82 77 68 63 64 67 56 58 60 55 55 55 53 49 48 46 46 44 44 45 44 43 42 41 39 38 38 39 39 40 41 41 42 43 45 47 48
103 104 100 95 93 88 80 77 80 77 72 71 63 60 65 62 60 61 60 59 56 55 52 51 49 48 49 49 49 49 48 48 48 48 49 49 50 50 50 51 53 55 58 58
109 103 104 102 100 91 81 86 85 79 72 67 65 63 65 67 68 68 67 65 60 61 60 56 55 54 54 54 55 55 55 56 56 56 57 58 60 61 61 61 63 64 66 67
113 115 110 107 103 95 88 80 80 78 77 71 72 63 70 73 73 73 71 69 66 66 64 63 61 60 59 59 60 61 59 58 59 59 58 59 61 61 63 63 64 66 68 70
111 116 112 106 109 105 96 88 80 72 67 73 78 72 75 77 76 77 76 76 75 71 69 67 65 62 62 62 62 62 62 63 63 64 66 68 68 69 69 70 71 73 78 81
116 118 117 118 112 110 104 96 90 87 83 77 73 73 77 75 77 80 79 79 80 78 75 71 67 67 69 70 69 69 69 69 70 72 73 75 77 78 78 79 80 81 83 83
119 117 116 108 100 101 100 100 100 100 96 84 73 66 73 78 84 86 86 86 85 82 78 75 74 73 73 74 73 72 73 74 76 78 79 80 79 79 81 82 82 84 86 87
131 118 111 106 110 113 108 107 104 102 91 96 82 80 83 89 89 87 88 87 85 81 79 79 79 78 77 76 77 76 77 79 80 80 80 81 82 85 85 89 91 91 93 96
135 128 117 112 114 114 113 112 114 111 101 101 94 92 86 84 82 82 86 87 88 87 84 82 80 81 82 81 81 81 82 83 83 84 85 87 88 92 93 96 100 100 99 101
127 132 127 121 115 117 122 114 107 106 104 102 98 92 94 91 88 88 88 89 87 86 85 85 87 88 88 87 86 85 83 84 86 89 94 95 96 97 100 103 103 104 106 108
132 128 129 123 121 127 112 110 112 115 112 108 100 101 101 99 99 96 96 96 92 90 89 88 90 89 88 88 86 87 89 91 94 98 100 101 103 103 105 108 110 111 112 115
131 132 129 128 124 119 113 114 112 111 107 108 108 109 109 105 103 101 99 101 98 97 97 96 93 93 94 94 95 96 97 100 103 105 106 108 110 111 111 113 115 117 118 120
135 134 133 132 132 121 106 108 112 114 114 111 109 107 106 110 110 102 107 112 108 105 103 102 101 103 99 100 101 102 104 108 110 112 115 117 118 119 119 118 119 121 123 126
130 130 136 134 136 133 118 111 110 119 106 110 113 114 114 116 115 113 116 116 116 113 112 111 110 109 109 111 112 112 115 117 119 121 122 123 124 124 124 125 127 127 128 130
130 132 134 137 135 130 124 120 116 110 112 118 118 118 120 120 119 119 121 121 120 120 120 119 119 119 119 119 119 120 121 122 124 126 127 127 128 128 129 131 133 133 133 135
132 134 133 134 134 129 127 128 124 118 115 115 118 122 123 122 122 124 124 124 124 122 121 122 122 121 122 124 125 126 126 127 128 131 131 133 133 133 133 135 138 140 141 139
135 134 134 132 133 133 132 130 129 128 124 123 121 120 123 124 126 126 127 127 126 126 125 125 124 125 127 128 130 131 132 133 132 133 134 136 137 138 138 140 142 145 146 144
131 133 134 133 132 132 131 131 132 131 131 130 127 126 124 123 124 127 128 128 129 130 128 127 128 129 131 133 134 135 135 135 136 139 139 140 141 142 143 146 147 147 148 147
124 130 133 134 134 135 135 136 135 135 134 132 132 131 130 129 128 128 129 130 131 131 131 131 131 132 133 133 133 136 137 139 142 142 141 143 146 147 147 148 146 148 149 149
Wind_Direction
224 220 221 219 219 217 216 217 218 221 221 219 222 219 226 224 223 221 229 238 240 237 238 238 238 240 244 248 256 256 250 242 236 250 250 242 241 247 254 257 262 267 271 276
218 223 218 219 219 219 217 218 219 221 222 220 221 221 223 226 224 223 225 230 236 238 236 237 235 232 234 223 230 239 242 245 243 244 247 251 254 260 265 269 273 278 283 282
215 218 219 219 220 221 221 220 218 220 226 221 218 225 227 228 226 225 226 228 231 234 234 231 230 227 223 216 212 220 222 221 228 237 243 250 255 261 265 266 268 270 276 279
213 214 222 219 220 222 222 220 221 218 224 221 218 221 221 223 226 225 222 223 227 227 227 229 229 228 231 234 233 236 240 238 244 251 262 266 271 276 279 276 279 284 287 288
215 215 222 227 223 224 224 224 224 219 221 220 218 223 227 226 234 231 226 219 221 226 224 224 227 231 232 234 237 240 248 253 254 254 263 273 281 279 280 283 284 283 284 290
214 215 218 223 222 222 224 225 227 225 225 220 221 221 224 230 232 228 231 228 225 224 228 227 231 233 234 237 242 246 250 255 259 264 267 270 274 280 282 284 283 283 285 285
216 218 218 221 225 227 229 226 229 230 233 233 225 222 231 230 232 235 239 234 232 231 232 230 233 237 240 243 243 244 247 250 257 262 265 269 272 276 278 280 281 286 286 289
221 219 222 225 227 230 232 230 232 232 232 228 224 224 229 233 232 235 236 236 233 235 234 236 242 243 248 250 253 253 253 254 256 259 264 268 271 272 275 278 281 284 287 288
222 220 222 224 228 227 230 233 235 229 229 229 232 229 231 234 236 239 243 242 235 236 237 240 243 245 251 256 259 261 261 261 262 264 266 269 271 274 277 280 283 285 285 287
219 220 223 224 226 225 226 229 235 231 232 234 237 233 232 235 238 238 240 243 239 239 240 242 243 247 251 255 260 265 266 267 267 269 270 271 275 276 278 281 282 284 285 286
217 222 224 226 228 230 227 229 235 231 231 234 236 235 235 236 239 242 243 244 244 244 245 246 246 246 250 256 260 265 270 273 274 275 276 277 277 276 277 280 283 284 286 286
218 221 227 229 228 228 227 224 225 226 230 236 236 236 237 240 241 244 245 247 247 249 250 251 252 255 258 263 265 267 270 272 275 276 276 276 276 277 280 284 285 285 287 290
220 221 222 225 227 229 232 233 233 233 233 234 234 235 238 242 247 249 250 251 251 253 255 255 257 260 261 262 264 266 269 271 273 275 276 278 278 280 282 284 287 287 287 289
221 221 223 226 229 231 232 236 236 238 237 235 234 235 242 244 244 245 247 250 251 254 257 259 259 259 261 262 262 265 267 269 272 275 277 279 280 281 283 285 286 287 288 290
222 224 224 222 221 223 226 226 227 229 230 235 235 233 234 237 240 244 250 253 257 258 259 260 261 262 262 263 263 265 267 269 272 274 276 278 281 283 286 287 288 290 290 291
223 223 222 222 221 223 226 228 230 231 231 236 236 237 238 245 248 251 254 255 257 259 259 260 261 261 261 261 263 266 270 271 273 274 276 278 281 286 287 289 290 290 291 292
221 225 227 227 226 226 228 234 239 236 236 241 241 243 242 246 250 252 252 253 256 260 262 262 260 260 260 261 265 268 271 273 275 276 279 282 284 287 289 289 290 291 292 293
220 222 225 226 228 227 232 233 235 236 238 242 243 245 247 248 251 254 257 258 258 257 258 260 259 261 262 263 266 269 271 273 274 277 280 281 283 284 287 290 292 292 293 294
222 223 224 226 228 230 228 231 234 238 240 240 242 244 246 249 250 252 255 257 256 256 258 259 259 259 262 266 269 270 272 274 276 279 280 281 282 283 285 289 290 291 292 294
224 223 225 227 228 230 228 231 234 237 238 242 245 248 248 249 251 253 251 253 255 258 259 260 260 261 264 266 267 268 272 275 276 277 279 280 281 283 285 288 291 291 293 294
225 226 226 227 230 231 231 230 233 236 238 236 240 243 244 246 248 250 251 253 254 256 258 259 261 262 264 267 269 271 272 273 275 277 279 281 282 284 285 287 289 292 293 292
225 226 227 228 230 230 231 231 234 237 236 235 238 241 242 244 245 248 250 252 254 256 259 261 262 264 266 268 270 272 273 274 275 278 280 282 283 283 284 285 287 290 292 292
224 227 227 229 231 231 231 232 233 234 234 236 238 240 242 244 246 249 250 253 254 256 259 260 262 264 267 269 270 271 272 274 277 279 280 281 283 283 284 284 287 290 292 292
224 225 227 229 230 232 232 234 235 235 235 237 239 241 243 245 247 249 251 253 255 257 259 261 263 266 267 267 268 270 272 275 276 277 279 280 282 282 284 284 286 289 291 291
223 224 227 229 230 232 233 234 236 237 238 238 240 242 243 245 247 249 251 253 255 256 258 259 261 263 264 266 268 270 271 272 273 275 278 279 281 281 282 284 286 290 291 292
222 223 225 227 230 232 233 234 236 237 240 241 242 243 244 245 247 249 251 253 255 257 258 259 261 263 265 267 268 269 270 272 275 277 279 279 280 281 283 286 290 290 291 290